• In Uzbekistan
  • List of Countries
  • For 7 days
  • Water Temperature
  • Satellite Maps
  • Weather Map
  • Weather Widgets
  • user-avatar
    Login

    Hourly Weather Paphos

    Today, 20 November, Tuesday

    Time Temperature Precipitation Wind Pressure Humidity
    00:00 +19°C° 0 mm 2 mps 764 mmHg 82%
    01:00 +19°C° 0 mm 2 mps 764 mmHg 83%
    02:00 +18°C° 0 mm 2 mps 764 mmHg 84%
    03:00 +18°C° 0 mm 2 mps 764 mmHg 84%
    04:00 +18°C° 0 mm 2 mps 764 mmHg 84%
    05:00 +18°C° 0 mm 2 mps 764 mmHg 84%
    06:00 +19°C° 0 mm 2 mps 764 mmHg 79%
    07:00 +20°C° 0 mm 2 mps 764 mmHg 74%
    08:00 +21°C° 0 mm 2 mps 764 mmHg 69%
    09:00 +23°C° 0 mm 2 mps 765 mmHg 65%
    10:00 +23°C° 0 mm 2 mps 765 mmHg 61%
    11:00 +24°C° 0 mm 2 mps 765 mmHg 57%
    12:00 +24°C° 0 mm 2 mps 765 mmHg 57%
    13:00 +24°C° 0 mm 2 mps 765 mmHg 57%
    14:00 +24°C° 0 mm 3 mps 764 mmHg 56%
    15:00 +22°C° 0 mm 3 mps 764 mmHg 62%
    16:00 +22°C° 0 mm 3 mps 764 mmHg 67%
    17:00 +21°C° 0 mm 3 mps 764 mmHg 73%
    18:00 +20°C° 0 mm 3 mps 764 mmHg 75%
    19:00 +20°C° 0 mm 3 mps 764 mmHg 77%
    20:00 +19°C° 0 mm 2 mps 764 mmHg 79%
    21:00 +19°C° 0 mm 2 mps 764 mmHg 80%
    22:00 +19°C° 0 mm 2 mps 764 mmHg 81%
    23:00 +19°C° 0 mm 2 mps 764 mmHg 82%

    Tomorrow, 21 November, Wednesday

    Time Temperature Precipitation Wind Pressure Humidity
    00:00 +19°C° 0 mm 2 mps 764 mmHg 82%
    01:00 +19°C° 0 mm 2 mps 764 mmHg 82%
    02:00 +19°C° 0 mm 2 mps 764 mmHg 82%
    03:00 +19°C° 0 mm 3 mps 763 mmHg 83%
    04:00 +19°C° 0 mm 3 mps 763 mmHg 83%
    05:00 +19°C° 0 mm 3 mps 763 mmHg 83%
    06:00 +19°C° 0 mm 2 mps 763 mmHg 81%
    07:00 +20°C° 0 mm 2 mps 763 mmHg 79%
    08:00 +20°C° 0 mm 2 mps 763 mmHg 77%
    09:00 +21°C° 0 mm 2 mps 763 mmHg 73%
    10:00 +23°C° 0 mm 2 mps 763 mmHg 69%
    11:00 +23°C° 0 mm 2 mps 763 mmHg 65%
    12:00 +22°C° 0 mm 3 mps 762 mmHg 65%
    13:00 +22°C° 0 mm 3 mps 762 mmHg 64%
    14:00 +22°C° 0 mm 3 mps 761 mmHg 64%
    15:00 +22°C° 0 mm 4 mps 761 mmHg 68%
    16:00 +21°C° 0 mm 4 mps 761 mmHg 71%
    17:00 +21°C° 0 mm 5 mps 760 mmHg 75%
    18:00 +21°C° 0.5 mm 5 mps 760 mmHg 78%
    19:00 +20°C° 0.5 mm 4 mps 761 mmHg 81%
    20:00 +20°C° 0.5 mm 4 mps 761 mmHg 84%
    21:00 +20°C° 0.7 mm 5 mps 760 mmHg 83%
    22:00 +21°C° 0.7 mm 6 mps 760 mmHg 81%
    23:00 +21°C° 0.7 mm 6 mps 760 mmHg 80%

    Day after tomorrow, 22 November, Thursday

    Time Temperature Precipitation Wind Pressure Humidity
    00:00 +21°C° 0.9 mm 6 mps 760 mmHg 79%
    01:00 +21°C° 0.9 mm 6 mps 759 mmHg 78%
    02:00 +21°C° 0.9 mm 6 mps 759 mmHg 77%
    03:00 +21°C° 0.9 mm 6 mps 759 mmHg 79%
    04:00 +20°C° 0.9 mm 6 mps 758 mmHg 80%
    05:00 +20°C° 0.9 mm 6 mps 758 mmHg 81%
    06:00 +20°C° 0.2 mm 6 mps 758 mmHg 81%
    07:00 +21°C° 0.2 mm 6 mps 758 mmHg 80%
    08:00 +21°C° 0.2 mm 5 mps 759 mmHg 79%
    09:00 +22°C° 0 mm 6 mps 758 mmHg 76%
    10:00 +22°C° 0 mm 7 mps 758 mmHg 72%
    11:00 +22°C° 0 mm 7 mps 758 mmHg 69%
    12:00 +22°C° 0.1 mm 8 mps 758 mmHg 70%
    13:00 +22°C° 0.1 mm 8 mps 758 mmHg 71%
    14:00 +22°C° 0.1 mm 8 mps 757 mmHg 72%
    15:00 +21°C° 0.2 mm 8 mps 757 mmHg 74%
    16:00 +21°C° 0.2 mm 8 mps 757 mmHg 77%
    17:00 +20°C° 0.2 mm 8 mps 757 mmHg 79%
    18:00 +20°C° 0.2 mm 7 mps 757 mmHg 78%
    19:00 +20°C° 0.2 mm 7 mps 758 mmHg 78%
    20:00 +19°C° 0.2 mm 6 mps 758 mmHg 77%
    21:00 +19°C° 0.2 mm 6 mps 758 mmHg 77%
    22:00 +19°C° 0.2 mm 6 mps 758 mmHg 76%
    23:00 +19°C° 0.2 mm 6 mps 758 mmHg 76%

    23 November, Friday

    Time Temperature Precipitation Wind Pressure Humidity
    00:00 +19°C° 0.5 mm 6 mps 757 mmHg 76%
    01:00 +19°C° 0.5 mm 6 mps 757 mmHg 77%
    02:00 +18°C° 0.5 mm 7 mps 757 mmHg 78%
    03:00 +17°C° 0.5 mm 6 mps 757 mmHg 80%
    04:00 +17°C° 0.5 mm 6 mps 757 mmHg 81%
    05:00 +16°C° 0.5 mm 6 mps 757 mmHg 83%
    06:00 +17°C° 0.2 mm 6 mps 757 mmHg 79%
    07:00 +19°C° 0.2 mm 6 mps 757 mmHg 75%
    08:00 +19°C° 0.2 mm 6 mps 757 mmHg 72%
    09:00 +20°C° 0.2 mm 6 mps 757 mmHg 69%
    10:00 +20°C° 0.2 mm 6 mps 757 mmHg 66%
    11:00 +21°C° 0.2 mm 6 mps 757 mmHg 63%
    12:00 +21°C° 0.1 mm 5 mps 757 mmHg 64%
    13:00 +20°C° 0.1 mm 4 mps 756 mmHg 65%
    14:00 +20°C° 0.1 mm 4 mps 756 mmHg 66%
    15:00 +20°C° 0.1 mm 4 mps 756 mmHg 68%
    16:00 +19°C° 0.1 mm 4 mps 756 mmHg 71%
    17:00 +19°C° 0.1 mm 4 mps 756 mmHg 73%
    18:00 +19°C° 0.3 mm 5 mps 756 mmHg 74%
    19:00 +17°C° 0.3 mm 5 mps 756 mmHg 74%
    20:00 +17°C° 0.3 mm 6 mps 757 mmHg 74%
    21:00 +17°C° 0.2 mm 6 mps 757 mmHg 75%
    22:00 +17°C° 0.2 mm 7 mps 757 mmHg 77%
    23:00 +17°C° 0.2 mm 7 mps 757 mmHg 78%

    24 November, Saturday

    Time Temperature Precipitation Wind Pressure Humidity
    00:00 +17°C° 0.3 mm 7 mps 757 mmHg 80%
    01:00 +17°C° 0.3 mm 7 mps 757 mmHg 82%
    02:00 +16°C° 0.3 mm 7 mps 757 mmHg 84%
    03:00 +16°C° 0.4 mm 8 mps 757 mmHg 84%
    04:00 +16°C° 0.4 mm 8 mps 757 mmHg 83%
    05:00 +16°C° 0.4 mm 9 mps 757 mmHg 83%
    06:00 +16°C° 0.5 mm 9 mps 757 mmHg 83%
    07:00 +16°C° 0.5 mm 9 mps 757 mmHg 83%
    08:00 +16°C° 0.5 mm 10 mps 758 mmHg 82%
    09:00 +16°C° 0.6 mm 10 mps 758 mmHg 81%
    10:00 +17°C° 0.6 mm 10 mps 758 mmHg 80%
    11:00 +17°C° 0.6 mm 10 mps 758 mmHg 79%
    12:00 +17°C° 0.7 mm 10 mps 758 mmHg 79%
    13:00 +17°C° 0.7 mm 10 mps 758 mmHg 79%
    14:00 +17°C° 0.7 mm 9 mps 758 mmHg 79%
    15:00 +17°C° 0.6 mm 10 mps 758 mmHg 80%
    16:00 +17°C° 0.6 mm 10 mps 758 mmHg 81%
    17:00 +17°C° 0.6 mm 10 mps 758 mmHg 81%
    18:00 +17°C° 0.4 mm 10 mps 759 mmHg 81%
    19:00 +17°C° 0.4 mm 10 mps 759 mmHg 81%
    20:00 +17°C° 0.4 mm 9 mps 759 mmHg 80%
    21:00 +17°C° 0.3 mm 9 mps 759 mmHg 80%
    22:00 +17°C° 0.3 mm 8 mps 759 mmHg 79%
    23:00 +17°C° 0.3 mm 8 mps 759 mmHg 78%

    25 November, Sunday

    Time Temperature Precipitation Wind Pressure Humidity
    00:00 +17°C° 0.1 mm 8 mps 759 mmHg 77%
    01:00 +18°C° 0.1 mm 7 mps 759 mmHg 76%
    02:00 +18°C° 0.1 mm 7 mps 759 mmHg 75%
    03:00 +17°C° 0.2 mm 7 mps 759 mmHg 75%
    04:00 +17°C° 0.2 mm 7 mps 759 mmHg 76%
    05:00 +17°C° 0.2 mm 7 mps 759 mmHg 76%
    06:00 +17°C° 0.2 mm 7 mps 759 mmHg 75%
    07:00 +17°C° 0.2 mm 7 mps 760 mmHg 74%
    08:00 +19°C° 0.2 mm 6 mps 760 mmHg 72%
    09:00 +19°C° 0 mm 6 mps 760 mmHg 70%
    10:00 +20°C° 0 mm 6 mps 760 mmHg 67%
    11:00 +21°C° 0 mm 5 mps 761 mmHg 64%
    12:00 +21°C° 0 mm 5 mps 760 mmHg 64%
    13:00 +21°C° 0 mm 5 mps 760 mmHg 64%
    14:00 +21°C° 0 mm 4 mps 760 mmHg 64%
    15:00 +20°C° 0 mm 4 mps 760 mmHg 67%
    16:00 +19°C° 0 mm 4 mps 760 mmHg 69%
    17:00 +19°C° 0 mm 3 mps 760 mmHg 72%
    18:00 +19°C° 0 mm 3 mps 761 mmHg 72%
    19:00 +18°C° 0 mm 3 mps 761 mmHg 73%
    20:00 +18°C° 0 mm 3 mps 761 mmHg 73%
    21:00 +18°C° 0 mm 3 mps 761 mmHg 72%
    22:00 +18°C° 0 mm 3 mps 761 mmHg 71%
    23:00 +17°C° 0 mm 3 mps 761 mmHg 69%
    Show more